Tracking 29040 objects as of 16-Jun-2024
HD Live streaming from Space Station
objects crossing your sky now

SL-14 DEB

Track SL-14 DEB now!
10-day predictions


NORAD ID: 26029
Int'l Code: 1991-068AQ
Perigee: 1,415.0 km
Apogee: 1,475.2 km
Inclination: 82.6 °
Period: 114.6 minutes
Semi major axis: 7816 km
RCS: 0.0153 m2 (small)
Launch date: September 28, 1991
Source: Commonwealth of Independent States (former USSR) (CIS)
Launch site: PLESETSK MISSILE AND SPACE COMPLEX (PKMTR)

Note: This is SATELLITE DEBRIS
Your satellite tracking list
Your tracking list is empty




NASA's NSSDC Master Catalog

Two Line Element Set (TLE):
1 26029U 91068AQ  24167.96202802  .00000083  00000-0  44023-3 0  9999
2 26029  82.5701 164.1448 0038489 212.9631 175.2582 12.56374737151640
Source of the keplerian elements: AFSPC